When you browse on this site, cookies collect data to enhance your experience and personalize the content and advertising you see.
Visit our Privacy Policy to learn more. By continuing to use the site, you agree to this use of cookies and data.
  • Em Portugal
  • Lista de países
  • Para 7 dias
  • Temperatura da água
  • Mapa do tempo
  • Widgets de tempo
  • user-avatar
    Iniciar Sessão

    Previsão horária em Calguri

    Hoje, 26 Agosto, Segunda-feira

    Tempo Temperatura Precipitação Vento Pressão Humidade
    00:00 +10°C° 0 mm 5 m/s 736 mmHg 53%
    01:00 +9°C° 0 mm 5 m/s 735 mmHg 57%
    02:00 +8°C° 0 mm 6 m/s 735 mmHg 60%
    03:00 +8°C° 0 mm 5 m/s 736 mmHg 64%
    04:00 +7°C° 0 mm 5 m/s 736 mmHg 68%
    05:00 +7°C° 0 mm 4 m/s 736 mmHg 73%
    06:00 +8°C° 0 mm 5 m/s 736 mmHg 69%
    07:00 +8°C° 0 mm 5 m/s 737 mmHg 65%
    08:00 +9°C° 0 mm 6 m/s 737 mmHg 61%
    09:00 +10°C° 0 mm 5 m/s 737 mmHg 55%
    10:00 +13°C° 0 mm 5 m/s 737 mmHg 49%
    11:00 +14°C° 0 mm 5 m/s 737 mmHg 44%
    12:00 +15°C° 0 mm 5 m/s 736 mmHg 40%
    13:00 +16°C° 0 mm 5 m/s 736 mmHg 37%
    14:00 +17°C° 0 mm 5 m/s 735 mmHg 34%
    15:00 +16°C° 0 mm 5 m/s 735 mmHg 34%
    16:00 +16°C° 0 mm 5 m/s 735 mmHg 33%
    17:00 +16°C° 0 mm 5 m/s 735 mmHg 33%
    18:00 +15°C° 0 mm 5 m/s 736 mmHg 36%
    19:00 +14°C° 0 mm 5 m/s 736 mmHg 39%
    20:00 +13°C° 0 mm 5 m/s 736 mmHg 42%
    21:00 +12°C° 0 mm 4 m/s 736 mmHg 44%
    22:00 +11°C° 0 mm 4 m/s 736 mmHg 46%
    23:00 +11°C° 0 mm 4 m/s 736 mmHg 48%

    Amanhã, 27 Agosto, Terça-feira

    Tempo Temperatura Precipitação Vento Pressão Humidade
    00:00 +10°C° 0 mm 4 m/s 736 mmHg 49%
    01:00 +10°C° 0 mm 4 m/s 736 mmHg 51%
    02:00 +8°C° 0 mm 4 m/s 736 mmHg 52%
    03:00 +8°C° 0 mm 4 m/s 736 mmHg 53%
    04:00 +7°C° 0 mm 4 m/s 736 mmHg 55%
    05:00 +7°C° 0 mm 4 m/s 736 mmHg 57%
    06:00 +8°C° 0 mm 4 m/s 736 mmHg 55%
    07:00 +9°C° 0 mm 5 m/s 737 mmHg 53%
    08:00 +10°C° 0 mm 5 m/s 737 mmHg 51%
    09:00 +11°C° 0 mm 6 m/s 737 mmHg 45%
    10:00 +14°C° 0 mm 6 m/s 737 mmHg 39%
    11:00 +16°C° 0 mm 6 m/s 736 mmHg 32%
    12:00 +17°C° 0 mm 6 m/s 736 mmHg 29%
    13:00 +20°C° 0 mm 6 m/s 735 mmHg 25%
    14:00 +21°C° 0 mm 6 m/s 734 mmHg 22%
    15:00 +20°C° 0 mm 5 m/s 734 mmHg 23%
    16:00 +20°C° 0 mm 4 m/s 734 mmHg 24%
    17:00 +20°C° 0 mm 4 m/s 734 mmHg 26%
    18:00 +18°C° 0 mm 4 m/s 734 mmHg 28%
    19:00 +17°C° 0 mm 4 m/s 734 mmHg 30%
    20:00 +15°C° 0 mm 4 m/s 735 mmHg 32%
    21:00 +14°C° 0 mm 4 m/s 735 mmHg 32%
    22:00 +14°C° 0 mm 5 m/s 735 mmHg 33%
    23:00 +13°C° 0 mm 5 m/s 735 mmHg 34%

    Depois de amanhã, 28 Agosto, Quarta-feira

    Tempo Temperatura Precipitação Vento Pressão Humidade
    00:00 +13°C° 0 mm 5 m/s 734 mmHg 35%
    01:00 +13°C° 0 mm 5 m/s 734 mmHg 35%
    02:00 +12°C° 0 mm 5 m/s 734 mmHg 36%
    03:00 +12°C° 0 mm 5 m/s 734 mmHg 36%
    04:00 +10°C° 0 mm 5 m/s 734 mmHg 37%
    05:00 +10°C° 0 mm 5 m/s 734 mmHg 38%
    06:00 +12°C° 0 mm 5 m/s 734 mmHg 36%
    07:00 +13°C° 0 mm 6 m/s 734 mmHg 34%
    08:00 +14°C° 0 mm 7 m/s 734 mmHg 32%
    09:00 +16°C° 0 mm 7 m/s 734 mmHg 30%
    10:00 +20°C° 0 mm 7 m/s 734 mmHg 27%
    11:00 +22°C° 0 mm 7 m/s 733 mmHg 25%
    12:00 +24°C° 0 mm 8 m/s 733 mmHg 23%
    13:00 +26°C° 0 mm 8 m/s 732 mmHg 22%
    14:00 +28°C° 0 mm 8 m/s 732 mmHg 21%
    15:00 +27°C° 0 mm 6 m/s 731 mmHg 22%
    16:00 +27°C° 0 mm 5 m/s 731 mmHg 24%
    17:00 +26°C° 0 mm 4 m/s 731 mmHg 26%
    18:00 +25°C° 0 mm 4 m/s 731 mmHg 28%
    19:00 +23°C° 0 mm 5 m/s 731 mmHg 29%
    20:00 +21°C° 0 mm 5 m/s 731 mmHg 31%
    21:00 +20°C° 0 mm 5 m/s 730 mmHg 32%
    22:00 +20°C° 0 mm 5 m/s 730 mmHg 34%
    23:00 +19°C° 0 mm 5 m/s 730 mmHg 35%

    29 Agosto, Quinta-feira

    Tempo Temperatura Precipitação Vento Pressão Humidade
    00:00 +19°C° 0 mm 5 m/s 730 mmHg 36%
    01:00 +17°C° 0 mm 5 m/s 729 mmHg 36%
    02:00 +17°C° 0 mm 5 m/s 729 mmHg 37%
    03:00 +16°C° 0 mm 5 m/s 729 mmHg 38%
    04:00 +17°C° 0 mm 4 m/s 729 mmHg 39%
    05:00 +17°C° 0 mm 4 m/s 728 mmHg 39%
    06:00 +17°C° 0 mm 5 m/s 729 mmHg 37%
    07:00 +19°C° 0 mm 5 m/s 729 mmHg 35%
    08:00 +20°C° 0 mm 5 m/s 729 mmHg 33%
    09:00 +23°C° 0 mm 7 m/s 729 mmHg 30%
    10:00 +26°C° 0 mm 8 m/s 729 mmHg 26%
    11:00 +29°C° 0 mm 10 m/s 729 mmHg 23%
    12:00 +29°C° 0 mm 11 m/s 728 mmHg 23%
    13:00 +29°C° 0 mm 11 m/s 728 mmHg 23%
    14:00 +31°C° 0 mm 12 m/s 727 mmHg 23%
    15:00 +29°C° 0 mm 11 m/s 727 mmHg 26%
    16:00 +28°C° 0 mm 9 m/s 727 mmHg 30%
    17:00 +27°C° 0 mm 7 m/s 727 mmHg 33%
    18:00 +26°C° 0.1 mm 8 m/s 727 mmHg 38%
    19:00 +24°C° 0.1 mm 8 m/s 727 mmHg 42%
    20:00 +23°C° 0.1 mm 8 m/s 727 mmHg 47%
    21:00 +22°C° 0.2 mm 7 m/s 727 mmHg 52%
    22:00 +21°C° 0.2 mm 7 m/s 727 mmHg 58%
    23:00 +20°C° 0.2 mm 6 m/s 726 mmHg 63%

    30 Agosto, Sexta-feira

    Tempo Temperatura Precipitação Vento Pressão Humidade
    00:00 +19°C° 0.4 mm 6 m/s 726 mmHg 68%
    01:00 +18°C° 0.4 mm 7 m/s 725 mmHg 72%
    02:00 +17°C° 0.4 mm 7 m/s 725 mmHg 76%
    03:00 +17°C° 0 mm 8 m/s 725 mmHg 77%
    04:00 +17°C° 0 mm 8 m/s 725 mmHg 78%
    05:00 +16°C° 0 mm 9 m/s 724 mmHg 79%
    06:00 +17°C° 0 mm 10 m/s 725 mmHg 75%
    07:00 +17°C° 0 mm 12 m/s 725 mmHg 71%
    08:00 +17°C° 0 mm 13 m/s 726 mmHg 67%
    09:00 +15°C° 1.1 mm 12 m/s 726 mmHg 70%
    10:00 +16°C° 1.1 mm 11 m/s 726 mmHg 72%
    11:00 +14°C° 1.1 mm 10 m/s 726 mmHg 75%
    12:00 +15°C° 0.1 mm 9 m/s 726 mmHg 70%
    13:00 +15°C° 0.1 mm 8 m/s 726 mmHg 65%
    14:00 +15°C° 0.1 mm 7 m/s 726 mmHg 59%
    15:00 +16°C° 0 mm 6 m/s 727 mmHg 55%
    16:00 +16°C° 0 mm 6 m/s 727 mmHg 51%
    17:00 +17°C° 0 mm 5 m/s 727 mmHg 46%
    18:00 +16°C° 0 mm 5 m/s 727 mmHg 49%
    19:00 +15°C° 0 mm 5 m/s 728 mmHg 52%
    20:00 +13°C° 0 mm 4 m/s 728 mmHg 54%
    21:00 +13°C° 0 mm 4 m/s 728 mmHg 56%
    22:00 +13°C° 0 mm 4 m/s 728 mmHg 58%
    23:00 +12°C° 0 mm 4 m/s 729 mmHg 60%

    31 Agosto, Sábado

    Tempo Temperatura Precipitação Vento Pressão Humidade
    00:00 +12°C° 0 mm 4 m/s 729 mmHg 64%
    01:00 +11°C° 0 mm 4 m/s 728 mmHg 68%
    02:00 +11°C° 0 mm 4 m/s 728 mmHg 72%
    03:00 +10°C° 0 mm 4 m/s 729 mmHg 75%
    04:00 +10°C° 0 mm 4 m/s 729 mmHg 78%
    05:00 +9°C° 0 mm 3 m/s 729 mmHg 81%
    06:00 +10°C° 0 mm 4 m/s 729 mmHg 76%
    07:00 +10°C° 0 mm 5 m/s 730 mmHg 71%
    08:00 +12°C° 0 mm 5 m/s 730 mmHg 66%
    09:00 +14°C° 0 mm 6 m/s 730 mmHg 60%
    10:00 +16°C° 0 mm 7 m/s 730 mmHg 53%
    11:00 +17°C° 0 mm 7 m/s 730 mmHg 47%
    12:00 +18°C° 0 mm 7 m/s 729 mmHg 45%
    13:00 +20°C° 0 mm 8 m/s 729 mmHg 43%
    14:00 +20°C° 0 mm 8 m/s 729 mmHg 42%
    15:00 +20°C° 0 mm 7 m/s 729 mmHg 45%
    16:00 +19°C° 0 mm 6 m/s 729 mmHg 48%
    17:00 +19°C° 0 mm 6 m/s 729 mmHg 51%
    18:00 +17°C° 0 mm 5 m/s 730 mmHg 56%
    19:00 +17°C° 0 mm 4 m/s 730 mmHg 62%
    20:00 +16°C° 0 mm 3 m/s 731 mmHg 68%
    21:00 +14°C° 0 mm 3 m/s 731 mmHg 71%
    22:00 +15°C° 0 mm 2 m/s 731 mmHg 73%
    23:00 +14°C° 0 mm 2 m/s 731 mmHg 76%
    Mostrar mais